Location: Newark
(44.6768°N, 22.5302°E)
Time: 08:16:43
(UTC+00:00)

DIWATA 2B (PO-101) - Visible Passes

Search period start: 25 June 2022 00:00
Search period end: 05 July 2022 00:00
Orbit: 585 x 597 km, 98.0° (Epoch: 24 June)

Date Brightness Start Highest point End Pass type
(mag) Time Alt. Az. Time Alt. Az. Time Alt. Az.
25 Jun ? 00:48:45 27° SSW 00:50:39 44° W 00:54:42 10° NNW visible
25 Jun ? 23:20:38 11° ESE 23:23:43 22° ENE 23:26:58 10° NNE visible
26 Jun ? 00:57:12 24° SW 00:59:01 36° W 01:02:56 10° NNW visible
26 Jun ? 23:29:04 13° ESE 23:31:59 26° ENE 23:35:30 10° N visible
27 Jun ? 01:05:38 22° SW 01:07:24 30° W 01:11:08 10° NW visible
27 Jun ? 23:37:31 16° ESE 23:40:16 31° ENE 23:44:00 10° N visible
28 Jun ? 01:14:06 19° SW 01:15:48 25° W 01:19:17 10° NW visible
28 Jun ? 23:45:58 18° SE 23:48:33 38° ENE 23:52:28 10° N visible
29 Jun ? 01:22:31 16° SW 01:24:12 20° W 01:27:22 10° NW visible
29 Jun ? 23:54:24 21° SE 23:56:51 46° ENE 00:00:53 10° N visible
30 Jun ? 01:30:58 14° WSW 01:32:36 17° W 01:35:21 10° NW visible
01 Jul ? 00:02:52 25° SE 00:05:09 56° ENE 00:09:18 10° N visible
01 Jul ? 01:39:25 12° WSW 01:41:01 14° W 01:43:12 10° WNW visible
02 Jul ? 00:11:18 28° SSE 00:13:28 70° ENE 00:17:40 10° N visible
02 Jul ? 01:48:10 10° WSW 01:49:26 11° W 01:50:43 10° WNW visible
03 Jul ? 00:19:45 30° SSE 00:21:47 86° ENE 00:26:01 10° NNW visible
03 Jul ? 22:53:43 10° E 22:55:12 12° ENE 22:56:41 10° NE visible
04 Jul ? 00:28:12 32° S 00:30:06 78° WSW 00:34:20 10° NNW visible
04 Jul ? 23:01:15 10° E 23:03:25 14° ENE 23:05:37 10° NNE visible
